This demonstration page uses our WeatherBlox Daily Observations layout. Learn more.

Left ArrowRight Arrow

39.92423, -83.80882

Hourly Observations for January 11, 2018

Temp ( °F °C ) Dew Point ( °F °C ) Humidity (%) Winds ( mph kmh ) Pressure ( in mb ) Visibility ( mi km ) Precip ( " mm )
12:56 am 00:56 Cloudy 55 12.8 49 9.4 80 80 S 8 13 30.02 1017 10 16 N/A
1:56 am 01:56 Cloudy 54 12.2 48 8.9 80 80 S 8 13 30.03 1017 10 16 N/A
2:56 am 02:56 Cloudy 55 12.8 48 8.9 77 77 S 9 15 30.03 1017 10 16 N/A
3:56 am 03:56 Cloudy 54 12.2 48 8.9 80 80 S 9 15 30.04 1017 10 16 N/A
4:56 am 04:56 Cloudy 54 12.2 48 8.9 80 80 S 9 15 30.04 1017 10 16 N/A
5:56 am 05:56 Cloudy 53 11.7 48 8.9 83 83 S 8 13 30.05 1018 10 16 N/A
6:51 am 06:51 Mostly Cloudy 54 12 48 9 82 82 S 8 13 30.06 1018 10 16 N/A
6:56 am 06:56 Mostly Cloudy 53 11.7 48 8.9 83 83 S 8 13 30.06 1018 10 16 N/A
7:07 am 07:07 Mostly Cloudy 54 12 48 9 82 82 S 10 17 30.06 1018 10 16 N/A
7:56 am 07:56 Mostly Sunny 52 11.1 48 8.9 86 86 S 8 13 30.05 1018 10 16 N/A
8:56 am 08:56 Cloudy 51 10.6 48 8.9 89 89 SSE 14 22 30.04 1017 10 16 N/A
9:56 am 09:56 Cloudy with Rain 51 10.6 50 10 96 96 S 14 22 30.05 1018 5 8 0.04 1.02
10:16 am 10:16 Cloudy with Rain 52 11 52 11 100 100 S 12 19 30.06 1018 3 5 0.05 1.27
10:26 am 10:26 Cloudy with Light Rain 52 11 52 11 100 100 S 12 19 30.03 1017 3 4 0.06 1.52
10:33 am 10:33 Cloudy with Light Rain 54 12 52 11 94 94 S 9 15 30.03 1017 3 5 0.07 1.78
10:56 am 10:56 Cloudy with Light Rain 53 11.7 52 11.1 96 96 SSE 9 15 30.04 1017 9 14 0.07 1.78
11:11 am 11:11 Cloudy 54 12 52 11 94 94 S 6 9 30.03 1017 10 16 N/A
11:33 am 11:33 Cloudy with Light Rain 54 12 52 11 94 94 S 6 9 30.03 1017 10 16 N/A
11:41 am 11:41 Cloudy 54 12 52 11 94 94 SW 8 13 30.03 1017 10 16 N/A
11:56 am 11:56 Cloudy with Light Rain 52 11.1 51 10.6 97 97 SW 6 9 30.03 1017 4 6 0.02 0.51
12:19 pm 12:19 Cloudy with Light Rain 52 11 52 11 100 100 SSE 5 7 30.00 1016 3 5 0.10 2.54
12:26 pm 12:26 Cloudy with Rain 52 11 52 11 100 100 SSE 5 7 30.00 1016 5 8 0.11 2.79
12:56 pm 12:56 Cloudy with Light Rain 52 11.1 51 10.6 97 97 SE 10 17 29.97 1015 7 11 0.16 4.06
1:05 pm 13:05 Cloudy with Light Rain 52 11 52 11 100 100 SE 9 15 29.94 1014 4 6 0.01 0.25
1:37 pm 13:37 Cloudy 54 12 52 11 94 94 SSE 8 13 29.91 1013 10 16 0.01 0.25
1:56 pm 13:56 Cloudy with Light Rain 53 11.7 52 11.1 96 96 S 7 11 29.93 1013 10 16 0.01 0.25
2:21 pm 14:21 Cloudy with Light Rain 54 12 54 12 100 100 S 8 13 29.91 1013 3 4 N/A
2:30 pm 14:30 Cloudy with Light Rain 54 12 54 12 100 100 S 13 20 29.91 1013 4 6 N/A
2:56 pm 14:56 Cloudy 55 12.8 53 11.7 93 93 S 12 19 29.91 1013 10 16 N/A
3:45 pm 15:45 Cloudy with Light Rain 55 13 54 12 94 94 S 8 13 29.88 1012 10 16 N/A
3:56 pm 15:56 Cloudy 55 12.8 53 11.7 93 93 S 13 20 29.89 1012 10 16 N/A
4:56 pm 16:56 Cloudy 55 12.8 53 11.7 93 93 S 8 13 29.89 1012 10 16 N/A
5:56 pm 17:56 Cloudy 55 12.8 53 11.7 93 93 S 8 13 29.89 1012 10 16 N/A
6:56 pm 18:56 Cloudy 54 12.2 53 11.7 97 97 SSE 12 19 29.87 1012 10 16 N/A
7:56 pm 19:56 Partly Cloudy 56 13.3 54 12.2 93 93 S 9 15 29.86 1011 10 16 N/A
8:30 pm 20:30 Mostly Cloudy 55 13 54 12 94 94 S 10 17 29.85 1011 10 16 N/A
8:56 pm 20:56 Mostly Cloudy 56 13.3 54 12.2 93 93 S 10 17 29.84 1011 10 16 N/A
9:03 pm 21:03 Mostly Cloudy 55 13 55 13 100 100 S 10 17 29.83 1010 10 16 N/A
9:13 pm 21:13 Partly Cloudy 55 13 54 12 94 94 S 10 17 29.83 1010 10 16 N/A
9:56 pm 21:56 Clear 56 13.3 54 12.2 93 93 S 10 17 29.82 1010 10 16 N/A
10:56 pm 22:56 Cloudy 56 13.3 54 12.2 93 93 SSE 13 20 29.80 1009 10 16 N/A
11:56 pm 23:56 Cloudy 56 13.3 55 12.8 97 97 S 10 17 29.78 1008 10 16 N/A

Powered by AerisWeather